Location: Les Prads
(44.5235°N, 6.7657°E)
Time: 22:29:02
(UTC+00:00)

Daily predictions for brighter satellites

Satellite Brightness Start Highest point End
(mag) Time Altitude Azimuth Time Altitude Azimuth Time Altitude Azimuth
H-2A R/B 2.7 17:48:57 10° SE 17:53:25 34° ENE 17:58:01 10° N
SJ 16-02 4.1 17:51:20 10° WSW 17:54:36 20° WNW 17:57:54 10° N
Cosmos 2263 Rocket 3.5 17:52:32 10° SW 17:57:50 44° WNW 18:03:12 10° NNE
USA 116 4.1 17:57:23 10° NNE 18:00:57 42° E 18:04:56 10° S
Cosmos 1939 Rocket 3.4 17:57:10 10° S 18:01:17 66° W 18:05:26 10° NNW
Cosmos 1844 Rocket 2.9 17:56:58 10° S 18:02:15 47° ESE 18:07:35 10° NE
Cosmos 1842 4.4 17:59:04 10° NNW 18:02:49 48° W 18:06:33 10° SSW
Cosmos 372 Rocket 4.0 17:58:53 10° SSW 18:04:07 84° ESE 18:09:22 10° NNE
Cosmos 1707 2.7 18:02:00 10° N 18:05:49 63° E 18:09:36 10° SSE
CZ-2C R/B 3.4 18:05:02 10° SW 18:07:10 14° SSW 18:09:14 10° SSE
NOSS 3-2 (C) 4.3 17:59:57 10° NNW 18:07:14 54° NE 18:15:27 10° ESE
Cosmos 1844 4.0 18:04:22 10° S 18:09:43 43° ESE 18:15:01 10° NE
Cosmos 2034 Rocket 4.4 18:04:12 10° SSE 18:10:09 44° E 18:16:05 10° NNE
ISS -2.4 18:07:50 10° W 18:10:59 35° NNW 18:14:07 10° NE
NOSS 3-4 (A) 4.2 18:06:18 10° SSE 18:11:09 27° ESE 18:16:12 10° ENE
NOSS 3-4 (C) 4.2 18:06:26 10° SSE 18:11:16 27° ESE 18:16:18 10° ENE
USA 186 3.6 18:11:03 12° E 18:12:29 16° ENE 18:14:33 10° NNE
Meteor 1-12 Rocket 4.3 18:07:39 10° S 18:13:29 67° E 18:19:13 10° NNE
Cosmos 1300 Rocket 3.5 18:14:28 10° S 18:18:50 70° E 18:23:15 10° NNE
Okean 1 Rocket 4.1 18:18:29 10° SE 18:22:10 26° E 18:25:53 10° NNE
Sich 1 Rocket 4.1 18:18:42 10° SSW 18:23:11 67° W 18:27:45 10° N
Cosmos 2298 Rocket 4.0 18:20:04 10° SSW 18:25:24 86° ESE 18:30:46 10° NNE
CENTAUR R/B 3.3 18:18:23 10° NW 18:26:24 65° NE 18:34:46 11° SE
Cosmos 1833 Rocket 4.2 18:23:30 10° N 18:27:31 19° NE 18:30:11 14° E
CSL-04 Debris 4.1 18:24:02 10° SSE 18:29:25 87° ENE 18:34:51 10° NNW
CSL-04 Rocket 3.7 18:25:56 10° SSE 18:31:23 86° ENE 18:36:56 10° NNW
Cosmos 1766 4.2 18:29:54 10° SSE 18:33:11 26° E 18:36:28 10° NNE
Okean 2 Rocket 3.2 18:28:54 10° S 18:33:23 81° W 18:37:52 10° N
ATLAS 2AS CENTAUR R/B 3.4 18:26:11 10° S 18:33:28 43° ESE 18:40:48 10° NE
YAOGAN 1 3.3 18:29:49 10° S 18:34:04 57° W 18:38:20 10° NNW
Cosmos 1025 Rocket 3.0 18:30:51 10° N 18:35:16 88° WSW 18:39:40 10° S
ATLAS 3B R/B 3.7 18:32:20 10° NNW 18:38:22 32° NE 18:42:34 18° E
SWAS 4.4 18:36:51 10° NNW 18:41:10 78° ENE 18:44:39 15° SSE
Abrixas rocket 1.9 18:38:26 10° WNW 18:41:15 63° NNE 18:42:11 36° E
CREW DRAGON DEMO-1 DEB 3.0 18:40:17 10° NW 18:43:17 57° NNE 18:44:16 35° E
Cosmos 1536 Rocket 3.5 18:40:34 10° N 18:45:03 87° ENE 18:49:32 10° S
Cosmos 1125 Rocket 3.4 18:40:43 10° SSW 18:46:01 81° ESE 18:51:23 10° NNE
SJ-6B 3.4 18:48:31 30° E 18:49:22 34° ENE 18:52:50 10° N
CZ-4 R/B 3.5 18:48:04 10° SSW 18:51:46 29° W 18:55:27 10° NW
CZ-2C R/B 3.9 18:48:31 10° S 18:53:45 56° W 18:59:19 10° NNW
Cosmos 1464 Rocket 4.4 18:48:13 10° SSW 18:54:17 64° W 19:00:27 10° N
USA 238 DEB 4.1 18:48:26 10° NW 18:55:39 70° WSW 19:03:06 10° SSE
USA 238 4.1 18:48:32 10° NW 18:55:45 70° WSW 19:03:13 10° SSE
Cosmos 2285 Rocket 3.9 18:50:25 10° SSW 18:56:42 78° ESE 19:03:04 10° NNE
Cosmos 1674 2.6 18:53:33 10° N 18:57:25 82° E 19:00:17 17° SSE
Cosmos 2026 Rocket 4.3 18:52:06 10° N 18:58:15 48° ENE 19:02:16 21° SE
Cosmos 1092 Rocket 4.0 18:52:22 10° N 18:58:29 62° ENE 19:04:17 12° SSE
FREGAT/IRIS 4.3 19:04:41 19° NNE 19:04:41 19° NNE 19:05:38 10° N
MOS 1 Rocket 3.4 18:59:25 10° N 19:03:45 66° WNW 19:07:59 10° SSW
TSX-5 3.8 19:04:14 10° SSW 19:07:57 68° ESE 19:12:44 10° NNE
ARGOS 3.4 19:03:58 10° S 19:09:18 70° WSW 19:14:42 10° NNW
Cosmos 1340 Rocket 4.0 19:15:11 28° NE 19:15:11 28° NE 19:17:24 10° NNE
CZ-2C R/B 2.6 19:08:31 10° NNE 19:14:06 69° ESE 19:19:42 10° S
Cosmos 2279 Rocket 4.4 19:12:59 33° ESE 19:14:28 38° E 19:20:10 10° NNE
Cosmos 1733 3.0 19:13:48 35° S 19:15:17 73° E 19:19:07 10° NNE
MOS 1 4.2 19:13:05 24° SSE 19:16:42 75° ENE 19:22:24 10° NNW
Lacrosse 5 rocket 3.5 19:16:08 10° NNW 19:19:18 19° NNE 19:20:43 16° NE
Cosmos 2082 Rocket 3.3 19:16:05 10° N 19:20:49 27° NE 19:21:17 26° ENE
BREEZE-M DEB (TANK) 3.8 19:19:50 10° WNW 19:23:18 53° SSW 19:27:36 27° SE
BREEZE-M R/B 4.0 19:13:26 10° WSW 19:23:22 66° NNW 19:24:25 42° NE
DMSP B5D2-2 4.0 19:18:37 10° NNE 19:23:56 72° ESE 19:29:11 10° S
OBJECT-B 2.6 19:28:48 24° N 19:28:48 24° N 19:30:18 10° N
Cosmos 1805 3.9 19:23:23 10° SSW 19:27:13 56° W 19:31:05 10° N
Cosmos 2142 Rocket 4.5 19:24:38 26° SSE 19:28:05 56° E 19:34:09 10° NNE
Ariane Rocket 3.1 19:28:06 24° S 19:31:11 72° WSW 19:36:17 10° NNW
SL-08 RB Rocket 4.3 19:27:52 17° S 19:31:18 54° W 19:35:46 10° NNW
Milstar 3 Cent rocket 4.0 19:28:18 10° SW 19:32:12 16° S 19:32:39 16° S
H-2A R/B 3.7 19:28:25 10° SSW 19:32:50 31° W 19:37:23 10° NNW
USA 234 4.2 19:38:13 28° SSE 19:38:13 28° SSE 19:41:49 10° SSW
Cosmos 1269 Rocket 4.1 19:32:28 10° NNW 19:37:48 76° WSW 19:39:33 43° S
Cosmos 1626 2.7 19:39:01 10° NNW 19:42:02 53° NW 19:42:02 53° NW
MetOp-A 4.2 19:40:20 34° S 19:42:42 73° WSW 19:48:05 10° NNW
USA 186 3.6 19:42:34 28° WSW 19:42:56 29° W 19:45:52 10° NNW
Okean 1-7 Rocket 4.4 19:38:37 10° N 19:41:51 39° NNE 19:41:51 39° NNE
COSMOS 2406 3.1 19:41:22 10° NNW 19:47:05 86° ENE 19:47:56 66° SE
ISS -1.5 19:45:38 10° NW 19:47:46 22° NNW 19:47:46 22° NNW
Cosmos 2278 Rocket 2.6 19:44:26 10° SSW 19:51:32 48° NE 19:55:41 10° NNE
Lacrosse 4 Rocket 3.0 19:50:42 10° NNW 19:52:52 26° N 19:52:52 26° N
Meteor 1-24 Rocket 4.1 19:54:01 10° NNW 19:59:32 61° W 20:01:37 38° SSW
Cosmos 909 Rocket 4.3 19:53:24 10° NNW 19:59:42 49° NE 19:59:55 49° NE
NOSS 3-4 (A) 3.9 19:55:45 10° SW 20:01:33 58° NW 20:07:49 10° NNE
NOSS 3-4 (C) 3.9 19:55:50 10° SW 20:01:40 58° NW 20:07:55 10° NNE
Resurs 01 Rocket 2.6 20:03:26 41° N 20:03:26 41° N 20:06:23 10° N
SL-14 R/B 4.5 19:58:49 10° NNW 20:01:55 41° WNW 20:01:55 41° WNW
Meteor 2-19 Rocket 4.3 19:57:38 10° N 20:03:46 76° E 20:03:47 76° E
Cosmos 1833 Rocket 2.7 20:06:29 10° NNW 20:11:54 79° WNW 20:11:54 79° WNW
Cosmos 2251 Rocket 4.2 20:09:43 10° NNW 20:13:44 48° N 20:13:44 48° N
CENTAUR R/B 4.2 20:09:30 10° NW 20:17:00 39° WSW 20:22:00 22° SSW
SPOT 3 Rocket 4.0 20:20:50 56° W 20:20:50 56° W 20:25:40 10° NNW
ATLAS 2AS CENTAUR R/B 3.6 20:16:35 10° WSW 20:24:22 56° NW 20:32:06 10° NNE
ATLAS 3B R/B 2.7 20:22:47 10° NW 20:29:40 74° WSW 20:29:50 74° SW
Cosmos 1655 Rocket 4.2 20:32:13 10° NNW 20:37:50 68° NW 20:37:50 68° NW
Lacrosse 5 rocket 4.1 20:55:02 10° NW 20:56:20 18° NNW 20:56:20 18° NNW
Cosmos 2082 Rocket 3.6 20:59:44 10° NW 21:03:08 35° NW 21:03:08 35° NW
Cosmos 2278 Rocket 4.3 21:33:01 19° WNW 21:34:40 22° NW 21:39:02 10° N
